Weather History for Keahole Point, HI

Change the Weather History Date:

Monday, December 10, 2012

  Actual Average Record
Temperature  
Mean Temperature 76 °F -  
Max Temperature 82 °F 80 °F 88 °F (1989)
Min Temperature 70 °F 68 °F 65 °F (1982)
Cooling Degree Days 11    
Growing Degree Days 26 (Base 50)    
Moisture  
Dew Point 63 °F    
Average Humidity 63    
Maximum Humidity 76    
Minimum Humidity 52    
Precipitation  
Precipitation 0.00 in - - ()
Sea Level Pressure  
Sea Level Pressure 29.96 in    
Wind  
Wind Speed 5 mph (SSE)    
Max Wind Speed 12 mph    
Max Gust Speed -    
Visibility 10 miles    
Events      
Averages and records for this station are not official NWS values.
T = Trace of Precipitation, MM = Missing Value Source: NWS Daily Summary

Daily Weather History Graph

Daily Weather History Graph

Search for Another Location

Airport:

Trip Planner

Search our weather history database for the weather conditions in past years. The results will help you decide how hot, cold, wet, or windy it might be!

Date:

Astronomy

Dec. 10, 2012 Rise Set
Actual Time 6:48 AM HST 5:46 PM HST
Civil Twilight 6:24 AM HST 6:10 PM HST
Nautical Twilight 5:57 AM HST 6:37 PM HST
Astronomical Twilight 5:30 AM HST 7:04 PM HST
Moon 3:58 AM HST (12/10) 3:33 PM HST (12/10)
Length of Visible Light 11h 45m
Length of Day
10h 57m
Waning Crescent, 9% of the Moon is Illuminated
Dec 10
Waning Crescent
Dec 12
New
Dec 19
First Quarter
Dec 28
Full
Jan 4
Last Quarter

Hourly Weather History & Observations

Time (HST) Temp. Heat Index Dew Point Humidity Pressure Visibility Wind Dir Wind Speed Gust Speed Precip Events Conditions
12:53 AM 75.9 °F - 66.0 °F 71% 29.97 in 10.0 mi SSE 5.8 mph - N/A   Mostly Cloudy
1:53 AM 73.9 °F - 66.0 °F 76% 29.96 in 10.0 mi ENE 3.5 mph - N/A   Clear
2:53 AM 73.0 °F - 62.1 °F 68% 29.96 in 10.0 mi NE 5.8 mph - N/A   Clear
3:53 AM 72.0 °F - 62.1 °F 71% 29.94 in 10.0 mi NNE 4.6 mph - N/A   Clear
4:53 AM 72.0 °F - 61.0 °F 68% 29.94 in 10.0 mi Calm Calm - N/A   Clear
5:53 AM 70.0 °F - 60.1 °F 71% 29.95 in 10.0 mi East 3.5 mph - N/A   Clear
6:53 AM 70.0 °F - 60.1 °F 71% 29.96 in 10.0 mi NNE 8.1 mph - N/A   Clear
7:53 AM 73.9 °F - 60.1 °F 62% 29.96 in 10.0 mi Calm Calm - N/A   Clear
8:53 AM 78.1 °F - 60.1 °F 54% 29.98 in 10.0 mi Calm Calm - N/A   Clear
9:53 AM 81.0 °F 81.9 °F 62.1 °F 52% 29.98 in 10.0 mi South 9.2 mph - N/A   Clear
10:53 AM 82.0 °F 83.1 °F 63.0 °F 52% 29.96 in 10.0 mi SSW 9.2 mph - N/A   Clear
11:53 AM 81.0 °F 82.5 °F 64.0 °F 56% 29.95 in 10.0 mi South 10.4 mph - N/A   Scattered Clouds
12:53 PM 81.0 °F 82.7 °F 64.9 °F 58% 29.93 in 10.0 mi SSW 5.8 mph - N/A   Overcast
1:53 PM 81.0 °F 83.0 °F 66.0 °F 60% 29.91 in 10.0 mi West 8.1 mph - N/A   Scattered Clouds
2:53 PM 81.0 °F 82.5 °F 64.0 °F 56% 29.90 in 10.0 mi SSW 9.2 mph - N/A   Clear
3:53 PM 81.0 °F 82.5 °F 64.0 °F 56% 29.90 in 10.0 mi SSW 11.5 mph - N/A   Clear
4:53 PM 80.1 °F 81.7 °F 64.0 °F 58% 29.92 in 10.0 mi South 8.1 mph - N/A   Clear
5:53 PM 79.0 °F - 64.9 °F 62% 29.94 in 10.0 mi South 8.1 mph - N/A   Clear
6:53 PM 78.1 °F - 64.9 °F 64% 29.96 in 10.0 mi SE 6.9 mph - N/A   Clear
7:53 PM 77.0 °F - 64.0 °F 64% 29.98 in 10.0 mi Calm Calm - N/A   Clear
8:53 PM 75.9 °F - 64.0 °F 67% 29.99 in 10.0 mi Calm Calm - N/A   Clear
9:53 PM 75.0 °F - 64.0 °F 69% 29.99 in 10.0 mi East 3.5 mph - N/A   Clear
10:53 PM 73.9 °F - 63.0 °F 68% 30.00 in 10.0 mi ESE 4.6 mph - N/A   Clear
11:53 PM 75.0 °F - 63.0 °F 66% 29.99 in 10.0 mi SE 8.1 mph - N/A   Clear